| time (UTC) | temp F | wind direction | speed MPH | gust MPH | rain 1hr in | rain 24hr in | rain mn in | humidity % | barometer mb |
| 20260506222554 | 79 | 52 | 11.0 | 19.0 | 0.00 | 0.00 | 0.00 | 66 | 1006.7 |
| 20260506222050 | 80 | 33 | 9.0 | 19.0 | 0.00 | 0.00 | 0.00 | 65 | 1006.7 |
| 20260506221559 | 81 | 49 | 10.0 | 18.0 | 0.00 | 0.00 | 0.00 | 66 | 1006.5 |
| 20260506221049 | 81 | 9 | 9.0 | 18.0 | 0.00 | 0.00 | 0.00 | 67 | 1006.5 |
| 20260506220549 | 81 | 71 | 9.0 | 15.0 | 0.00 | 0.00 | 0.00 | 66 | 1006.5 |
| 20260506220049 | 81 | 38 | 6.0 | 16.0 | 0.00 | 0.00 | 0.00 | 67 | 1006.5 |
| 20260506215548 | 81 | 17 | 10.0 | 16.0 | 0.00 | 0.00 | 0.00 | 66 | 1006.4 |
| 20260506215048 | 81 | 40 | 9.0 | 16.0 | 0.00 | 0.00 | 0.00 | 67 | 1006.3 |
| 20260506214548 | 82 | 29 | 10.0 | 15.0 | 0.00 | 0.00 | 0.00 | 66 | 1006.3 |
| 20260506214048 | 82 | 26 | 10.0 | 17.0 | 0.00 | 0.00 | 0.00 | 64 | 1006.4 |
| 20260506213550 | 84 | 41 | 9.0 | 17.0 | 0.00 | 0.00 | 0.00 | 62 | 1006.4 |
| 20260506213053 | 85 | 30 | 4.0 | 9.0 | 0.00 | 0.00 | 0.00 | 61 | 1006.3 |
| 20260506212547 | 85 | 96 | 5.0 | 12.0 | 0.00 | 0.00 | 0.00 | 62 | 1006.3 |
| 20260506212047 | 85 | 98 | 6.0 | 12.0 | 0.00 | 0.00 | 0.00 | 62 | 1006.3 |
| 20260506211553 | 85 | 121 | 4.0 | 9.0 | 0.00 | 0.00 | 0.00 | 62 | 1006.3 |
| 20260506211046 | 85 | 96 | 6.0 | 9.0 | 0.00 | 0.00 | 0.00 | 61 | 1006.3 |
| 20260506210548 | 85 | 119 | 4.0 | 11.0 | 0.00 | 0.00 | 0.00 | 61 | 1006.3 |
| 20260506210048 | 86 | 74 | 3.0 | 8.0 | 0.00 | 0.00 | 0.00 | 58 | 1006.4 |
| 20260506205545 | 86 | 26 | 1.0 | 5.0 | 0.00 | 0.00 | 0.00 | 58 | 1006.5 |
| 20260506205045 | 87 | 28 | 2.0 | 8.0 | 0.00 | 0.00 | 0.00 | 59 | 1006.6 |
| 20260506204546 | 86 | 15 | 2.0 | 8.0 | 0.00 | 0.00 | 0.00 | 58 | 1006.6 |
| 20260506204044 | 87 | 86 | 5.0 | 8.0 | 0.00 | 0.00 | 0.00 | 56 | 1006.5 |
| 20260506203543 | 87 | 360 | 0.0 | 9.0 | 0.00 | 0.00 | 0.00 | 58 | 1006.6 |
| 20260506203043 | 87 | 130 | 4.0 | 9.0 | 0.00 | 0.00 | 0.00 | 58 | 1006.7 |
| 20260506202542 | 86 | 135 | 3.0 | 9.0 | 0.00 | 0.00 | 0.00 | 58 | 1006.7 |
| 20260506202046 | 87 | 142 | 6.0 | 10.0 | 0.00 | 0.00 | 0.00 | 59 | 1006.8 |
| 20260506201541 | 86 | 164 | 6.0 | 10.0 | 0.00 | 0.00 | 0.00 | 59 | 1006.8 |
| 20260506201043 | 86 | 93 | 2.0 | 9.0 | 0.00 | 0.00 | 0.00 | 60 | 1007.0 |
| 20260506200539 | 86 | 113 | 4.0 | 9.0 | 0.00 | 0.00 | 0.00 | 61 | 1007.1 |
| 20260506200037 | 85 | 106 | 1.0 | 9.0 | 0.00 | 0.00 | 0.00 | 60 | 1007.1 |
| 20260506195537 | 84 | 106 | 6.0 | 9.0 | 0.00 | 0.00 | 0.00 | 62 | 1007.2 |
| 20260506195038 | 84 | 78 | 2.0 | 9.0 | 0.00 | 0.00 | 0.00 | 64 | 1007.2 |
| 20260506194540 | 84 | 123 | 3.0 | 8.0 | 0.00 | 0.00 | 0.00 | 64 | 1007.1 |
| 20260506194037 | 85 | 169 | 0.0 | 5.0 | 0.00 | 0.00 | 0.00 | 64 | 1007.0 |
| 20260506193535 | 83 | 76 | 1.0 | 11.0 | 0.00 | 0.00 | 0.00 | 67 | 1007.2 |
| 20260506193045 | 83 | 56 | 6.0 | 11.0 | 0.00 | 0.00 | 0.00 | 66 | 1007.2 |
| 20260506192534 | 83 | 57 | 4.0 | 9.0 | 0.00 | 0.00 | 0.00 | 67 | 1007.3 |
| 20260506192035 | 82 | 62 | 5.0 | 9.0 | 0.00 | 0.00 | 0.00 | 67 | 1007.3 |
| 20260506191533 | 83 | 128 | 4.0 | 9.0 | 0.00 | 0.00 | 0.00 | 68 | 1007.3 |
| 20260506191032 | 83 | 103 | 2.0 | 7.0 | 0.00 | 0.00 | 0.00 | 69 | 1007.3 |
| 20260506190530 | 82 | 142 | 1.0 | 7.0 | 0.00 | 0.00 | 0.00 | 70 | 1007.4 |
| 20260506190028 | 82 | 142 | 2.0 | 7.0 | 0.00 | 0.00 | 0.00 | 72 | 1007.5 |
| 20260506185527 | 81 | 144 | 2.0 | 10.0 | 0.00 | 0.00 | 0.00 | 72 | 1007.5 |
| 20260506185026 | 80 | 144 | 5.0 | 10.0 | 0.00 | 0.00 | 0.00 | 73 | 1007.7 |
| 20260506184531 | 80 | 125 | 4.0 | 11.0 | 0.00 | 0.00 | 0.00 | 73 | 1007.7 |
| 20260506184027 | 80 | 360 | 5.0 | 11.0 | 0.00 | 0.00 | 0.00 | 73 | 1007.8 |
| 20260506183527 | 81 | 119 | 5.0 | 10.0 | 0.00 | 0.00 | 0.00 | 73 | 1007.8 |
| 20260506183025 | 80 | 139 | 5.0 | 10.0 | 0.00 | 0.00 | 0.00 | 74 | 1007.9 |
| 20260506182523 | 80 | 360 | 6.0 | 10.0 | 0.00 | 0.00 | 0.00 | 74 | 1007.9 |
| 20260506182023 | 79 | 360 | 5.0 | 11.0 | 0.00 | 0.00 | 0.00 | 75 | 1008.1 |
| 20260506181536 | 79 | 360 | 6.0 | 11.0 | 0.00 | 0.00 | 0.00 | 75 | 1008.2 |
| 20260506181023 | 79 | 360 | 3.0 | 9.0 | 0.00 | 0.00 | 0.00 | 75 | 1008.2 |
| 20260506180523 | 79 | 360 | 3.0 | 11.0 | 0.00 | 0.00 | 0.00 | 75 | 1008.3 |
| 20260506180025 | 79 | 360 | 4.0 | 11.0 | 0.00 | 0.00 | 0.00 | 74 | 1008.4 |
| 20260506175524 | 80 | 360 | 2.0 | 8.0 | 0.00 | 0.00 | 0.00 | 74 | 1008.3 |
| 20260506175021 | 79 | 360 | 3.0 | 9.0 | 0.00 | 0.00 | 0.00 | 74 | 1008.3 |
| 20260506174521 | 79 | 360 | 6.0 | 9.0 | 0.00 | 0.00 | 0.00 | 74 | 1008.3 |
| 20260506174023 | 79 | 360 | 5.0 | 10.0 | 0.00 | 0.00 | 0.00 | 75 | 1008.2 |
| 20260506173522 | 79 | 360 | 5.0 | 10.0 | 0.00 | 0.00 | 0.00 | 75 | 1008.3 |
| 20260506173026 | 79 | 360 | 6.0 | 10.0 | 0.00 | 0.00 | 0.00 | 75 | 1008.4 |
| 20260506172518 | 79 | 360 | 5.0 | 9.0 | 0.00 | 0.00 | 0.00 | 75 | 1008.4 |
| 20260506172019 | 79 | 40 | 4.0 | 10.0 | 0.00 | 0.00 | 0.00 | 76 | 1008.5 |
| 20260506171520 | 79 | 70 | 6.0 | 10.0 | 0.00 | 0.00 | 0.00 | 76 | 1008.4 |
| 20260506171020 | 79 | 57 | 7.0 | 10.0 | 0.00 | 0.00 | 0.00 | 75 | 1008.4 |
| 20260506170518 | 79 | 360 | 5.0 | 9.0 | 0.00 | 0.00 | 0.00 | 76 | 1008.4 |
| 20260506170017 | 78 | 360 | 3.0 | 8.0 | 0.00 | 0.00 | 0.00 | 76 | 1008.5 |
| 20260506165517 | 78 | 360 | 3.0 | 9.0 | 0.00 | 0.00 | 0.00 | 77 | 1008.5 |
| 20260506165014 | 78 | 360 | 5.0 | 9.0 | 0.00 | 0.00 | 0.00 | 78 | 1008.6 |
| 20260506164513 | 77 | 360 | 5.0 | 9.0 | 0.00 | 0.00 | 0.00 | 79 | 1008.5 |
| 20260506164015 | 77 | 360 | 4.0 | 9.0 | 0.00 | 0.00 | 0.00 | 79 | 1008.5 |
| 20260506163510 | 77 | 360 | 4.0 | 9.0 | 0.00 | 0.00 | 0.00 | 79 | 1008.4 |
| 20260506163016 | 77 | 360 | 4.0 | 8.0 | 0.00 | 0.00 | 0.00 | 79 | 1008.4 |
| 20260506162509 | 77 | 360 | 2.0 | 8.0 | 0.00 | 0.00 | 0.00 | 80 | 1008.5 |
| 20260506162010 | 77 | 360 | 4.0 | 8.0 | 0.00 | 0.00 | 0.00 | 81 | 1008.4 |
| 20260506161508 | 77 | 360 | 5.0 | 8.0 | 0.00 | 0.00 | 0.00 | 82 | 1008.3 |
| 20260506161009 | 76 | 360 | 3.0 | 6.0 | 0.00 | 0.00 | 0.00 | 82 | 1008.4 |
| 20260506160505 | 76 | 360 | 3.0 | 6.0 | 0.00 | 0.00 | 0.00 | 83 | 1008.2 |
| 20260506160004 | 76 | 360 | 1.0 | 5.0 | 0.00 | 0.00 | 0.00 | 83 | 1008.3 |
| 20260506155501 | 76 | 360 | 3.0 | 6.0 | 0.00 | 0.00 | 0.00 | 83 | 1008.2 |
| 20260506155104 | 76 | 360 | 3.0 | 6.0 | 0.00 | 0.00 | 0.00 | 83 | 1008.1 |
| 20260506154613 | 75 | 360 | 2.0 | 6.0 | 0.00 | 0.00 | 0.00 | 83 | 1008.2 |
| 20260506154057 | 75 | 360 | 4.0 | 8.0 | 0.00 | 0.00 | 0.00 | 83 | 1008.0 |
| 20260506153556 | 75 | 360 | 3.0 | 8.0 | 0.00 | 0.00 | 0.00 | 83 | 1008.0 |
| 20260506153056 | 75 | 360 | 2.0 | 6.0 | 0.00 | 0.00 | 0.00 | 84 | 1008.0 |
| 20260506152554 | 75 | 360 | 3.0 | 6.0 | 0.00 | 0.00 | 0.00 | 84 | 1007.9 |
| 20260506152057 | 75 | 360 | 3.0 | 5.0 | 0.00 | 0.00 | 0.00 | 84 | 1007.9 |
| 20260506151552 | 75 | 360 | 3.0 | 6.0 | 0.00 | 0.00 | 0.00 | 84 | 1007.7 |
| 20260506151054 | 75 | 360 | 2.0 | 4.0 | 0.00 | 0.00 | 0.00 | 83 | 1007.6 |
| 20260506150551 | 75 | 360 | 2.0 | 5.0 | 0.00 | 0.00 | 0.00 | 83 | 1007.5 |
| 20260506150050 | 75 | 360 | 2.0 | 4.0 | 0.00 | 0.00 | 0.00 | 83 | 1007.6 |
| 20260506145550 | 75 | 360 | 2.0 | 3.0 | 0.00 | 0.00 | 0.00 | 84 | 1007.6 |
| 20260506145049 | 75 | 360 | 1.0 | 2.0 | 0.00 | 0.00 | 0.00 | 84 | 1007.7 |
| 20260506144554 | 75 | 360 | 0.0 | 2.0 | 0.00 | 0.00 | 0.00 | 84 | 1007.7 |
| 20260506144050 | 75 | 360 | 0.0 | 3.0 | 0.00 | 0.00 | 0.00 | 84 | 1007.5 |
| 20260506143548 | 75 | 360 | 1.0 | 3.0 | 0.00 | 0.00 | 0.00 | 84 | 1007.5 |
| 20260506143048 | 75 | 360 | 1.0 | 3.0 | 0.00 | 0.00 | 0.00 | 84 | 1007.3 |
| 20260506142546 | 75 | 360 | 2.0 | 5.0 | 0.00 | 0.00 | 0.00 | 84 | 1007.2 |
| 20260506142045 | 75 | 360 | 1.0 | 5.0 | 0.00 | 0.00 | 0.00 | 84 | 1007.0 |
| 20260506141545 | 75 | 360 | 1.0 | 6.0 | 0.00 | 0.00 | 0.00 | 84 | 1007.1 |
| 20260506141046 | 75 | 360 | 3.0 | 6.0 | 0.00 | 0.00 | 0.00 | 84 | 1007.0 |
| 20260506140547 | 75 | 360 | 2.0 | 6.0 | 0.00 | 0.00 | 0.00 | 84 | 1006.9 |
| 20260506140042 | 75 | 360 | 2.0 | 8.0 | 0.00 | 0.00 | 0.00 | 84 | 1006.8 |
| 20260506135541 | 75 | 360 | 3.0 | 6.0 | 0.00 | 0.00 | 0.00 | 84 | 1006.8 |
| 20260506135040 | 75 | 360 | 1.0 | 5.0 | 0.00 | 0.00 | 0.00 | 85 | 1006.6 |
| 20260506134540 | 75 | 360 | 2.0 | 8.0 | 0.00 | 0.00 | 0.00 | 85 | 1006.4 |
| 20260506134040 | 75 | 360 | 2.0 | 9.0 | 0.00 | 0.00 | 0.00 | 85 | 1006.3 |
| 20260506133539 | 75 | 360 | 3.0 | 9.0 | 0.00 | 0.00 | 0.00 | 85 | 1006.4 |
| 20260506133052 | 74 | 360 | 2.0 | 10.0 | 0.00 | 0.00 | 0.00 | 85 | 1006.2 |
| 20260506132538 | 74 | 360 | 5.0 | 10.0 | 0.00 | 0.00 | 0.00 | 85 | 1006.4 |
| 20260506132040 | 74 | 360 | 3.0 | 10.0 | 0.00 | 0.00 | 0.00 | 85 | 1006.3 |
| 20260506131538 | 74 | 360 | 3.0 | 12.0 | 0.00 | 0.00 | 0.00 | 85 | 1006.2 |
| 20260506131037 | 74 | 360 | 4.0 | 12.0 | 0.00 | 0.00 | 0.00 | 85 | 1006.0 |
| 20260506130537 | 74 | 360 | 3.0 | 11.0 | 0.00 | 0.00 | 0.00 | 85 | 1006.1 |
| 20260506130039 | 74 | 360 | 4.0 | 12.0 | 0.00 | 0.00 | 0.00 | 85 | 1006.0 |
| 20260506125537 | 74 | 360 | 9.0 | 12.0 | 0.00 | 0.00 | 0.00 | 85 | 1006.1 |
| 20260506125034 | 74 | 360 | 6.0 | 12.0 | 0.00 | 0.00 | 0.00 | 85 | 1006.0 |
| 20260506124534 | 74 | 360 | 1.0 | 10.0 | 0.00 | 0.00 | 0.00 | 85 | 1006.0 |
| 20260506124033 | 74 | 360 | 4.0 | 10.0 | 0.00 | 0.00 | 0.00 | 85 | 1006.1 |
| 20260506123532 | 74 | 360 | 4.0 | 10.0 | 0.00 | 0.00 | 0.00 | 85 | 1006.1 |
| 20260506123032 | 74 | 360 | 4.0 | 9.0 | 0.00 | 0.00 | 0.00 | 85 | 1006.0 |
| 20260506122532 | 74 | 360 | 3.0 | 9.0 | 0.00 | 0.00 | 0.00 | 85 | 1006.1 |
| 20260506122031 | 74 | 360 | 4.0 | 9.0 | 0.00 | 0.00 | 0.00 | 85 | 1006.1 |
| 20260506121529 | 74 | 360 | 3.0 | 5.0 | 0.00 | 0.00 | 0.00 | 85 | 1006.1 |
| 20260506121031 | 74 | 360 | 2.0 | 6.0 | 0.00 | 0.00 | 0.00 | 85 | 1006.0 |
| 20260506120529 | 74 | 360 | 3.0 | 8.0 | 0.00 | 0.00 | 0.00 | 85 | 1005.9 |
| 20260506120029 | 74 | 360 | 4.0 | 8.0 | 0.00 | 0.00 | 0.00 | 85 | 1006.0 |
| 20260506115529 | 74 | 360 | 2.0 | 9.0 | 0.00 | 0.00 | 0.00 | 85 | 1006.0 |
| 20260506115028 | 74 | 360 | 5.0 | 9.0 | 0.00 | 0.00 | 0.00 | 85 | 1005.9 |
| 20260506114529 | 74 | 360 | 3.0 | 9.0 | 0.00 | 0.00 | 0.00 | 85 | 1005.9 |
| 20260506114027 | 74 | 360 | 2.0 | 6.0 | 0.00 | 0.00 | 0.00 | 85 | 1005.9 |
| 20260506113530 | 74 | 360 | 3.0 | 5.0 | 0.00 | 0.00 | 0.00 | 85 | 1005.9 |
| 20260506113028 | 74 | 360 | 2.0 | 5.0 | 0.00 | 0.00 | 0.00 | 85 | 1005.9 |
| 20260506112527 | 74 | 360 | 2.0 | 9.0 | 0.00 | 0.00 | 0.00 | 85 | 1005.9 |
| 20260506112027 | 74 | 360 | 3.0 | 9.0 | 0.00 | 0.00 | 0.00 | 85 | 1005.9 |
| 20260506111527 | 74 | 360 | 2.0 | 9.0 | 0.00 | 0.00 | 0.00 | 85 | 1005.8 |
| 20260506111026 | 74 | 360 | 3.0 | 9.0 | 0.00 | 0.00 | 0.00 | 84 | 1006.0 |
| 20260506110526 | 74 | 360 | 4.0 | 9.0 | 0.00 | 0.00 | 0.00 | 84 | 1005.9 |
| 20260506110026 | 74 | 360 | 4.0 | 8.0 | 0.00 | 0.00 | 0.00 | 84 | 1005.9 |
| 20260506105526 | 75 | 360 | 2.0 | 6.0 | 0.00 | 0.00 | 0.00 | 84 | 1005.9 |
| 20260506105026 | 75 | 360 | 3.0 | 9.0 | 0.00 | 0.00 | 0.00 | 84 | 1005.8 |
| 20260506104551 | 75 | 360 | 3.0 | 10.0 | 0.00 | 0.00 | 0.00 | 84 | 1005.8 |
| 20260506104029 | 75 | 360 | 4.0 | 11.0 | 0.00 | 0.00 | 0.00 | 84 | 1005.7 |
| 20260506103525 | 75 | 360 | 6.0 | 11.0 | 0.00 | 0.00 | 0.00 | 84 | 1005.5 |
| 20260506103024 | 75 | 360 | 2.0 | 10.0 | 0.00 | 0.00 | 0.00 | 84 | 1005.7 |
| 20260506102525 | 75 | 360 | 3.0 | 10.0 | 0.00 | 0.00 | 0.00 | 84 | 1005.8 |
| 20260506102025 | 75 | 360 | 3.0 | 9.0 | 0.00 | 0.00 | 0.00 | 84 | 1005.7 |
| 20260506101524 | 75 | 360 | 3.0 | 9.0 | 0.00 | 0.00 | 0.00 | 83 | 1005.7 |
| 20260506101026 | 75 | 360 | 2.0 | 9.0 | 0.00 | 0.00 | 0.00 | 83 | 1005.7 |
| 20260506100524 | 75 | 360 | 2.0 | 9.0 | 0.00 | 0.00 | 0.00 | 83 | 1005.7 |
| 20260506100023 | 75 | 360 | 1.0 | 15.0 | 0.00 | 0.00 | 0.00 | 83 | 1005.7 |
| 20260506095523 | 75 | 360 | 4.0 | 15.0 | 0.00 | 0.00 | 0.00 | 83 | 1005.7 |
| 20260506095022 | 75 | 360 | 5.0 | 15.0 | 0.00 | 0.00 | 0.00 | 83 | 1005.7 |
| 20260506094529 | 75 | 360 | 4.0 | 13.0 | 0.00 | 0.00 | 0.00 | 83 | 1005.7 |
| 20260506094021 | 75 | 360 | 6.0 | 10.0 | 0.00 | 0.00 | 0.00 | 83 | 1005.6 |
| 20260506093520 | 75 | 153 | 5.0 | 10.0 | 0.00 | 0.00 | 0.00 | 83 | 1005.6 |
| 20260506093020 | 75 | 194 | 2.0 | 10.0 | 0.00 | 0.00 | 0.00 | 83 | 1005.6 |
| 20260506092520 | 75 | 148 | 4.0 | 10.0 | 0.00 | 0.00 | 0.00 | 83 | 1005.6 |
| 20260506092020 | 75 | 167 | 2.0 | 10.0 | 0.00 | 0.00 | 0.00 | 83 | 1005.5 |
| 20260506091521 | 75 | 173 | 4.0 | 14.0 | 0.00 | 0.00 | 0.00 | 83 | 1005.6 |
| 20260506091021 | 75 | 252 | 4.0 | 14.0 | 0.00 | 0.00 | 0.00 | 83 | 1005.6 |
| 20260506090522 | 75 | 192 | 5.0 | 14.0 | 0.00 | 0.00 | 0.00 | 83 | 1005.5 |
| 20260506090018 | 75 | 156 | 8.0 | 14.0 | 0.00 | 0.00 | 0.00 | 83 | 1005.6 |
| 20260506085518 | 75 | 180 | 3.0 | 10.0 | 0.00 | 0.00 | 0.00 | 83 | 1005.7 |
| 20260506085018 | 75 | 157 | 4.0 | 16.0 | 0.00 | 0.00 | 0.00 | 83 | 1005.7 |
| 20260506084517 | 75 | 166 | 8.0 | 17.0 | 0.00 | 0.00 | 0.00 | 83 | 1005.7 |
| 20260506084019 | 75 | 167 | 5.0 | 14.0 | 0.00 | 0.00 | 0.00 | 83 | 1005.8 |
| 20260506083516 | 75 | 164 | 3.0 | 10.0 | 0.00 | 0.00 | 0.00 | 83 | 1005.9 |
| 20260506083033 | 75 | 171 | 5.0 | 11.0 | 0.00 | 0.00 | 0.00 | 83 | 1005.9 |
| 20260506082515 | 75 | 140 | 3.0 | 16.0 | 0.00 | 0.00 | 0.00 | 83 | 1005.9 |
| 20260506082014 | 75 | 156 | 7.0 | 15.0 | 0.00 | 0.00 | 0.00 | 83 | 1005.9 |
| 20260506081514 | 75 | 157 | 5.0 | 14.0 | 0.00 | 0.00 | 0.00 | 83 | 1006.0 |
| 20260506081015 | 75 | 165 | 4.0 | 14.0 | 0.00 | 0.00 | 0.00 | 83 | 1005.9 |
| 20260506080512 | 75 | 159 | 5.0 | 14.0 | 0.00 | 0.00 | 0.00 | 83 | 1005.9 |
| 20260506073512 | 75 | 147 | 5.0 | 17.0 | 0.00 | 0.00 | 0.00 | 83 | 1006.0 |
| 20260506073009 | 75 | 152 | 7.0 | 19.0 | 0.00 | 0.00 | 0.00 | 83 | 1006.1 |
| 20260506072508 | 75 | 166 | 11.0 | 20.0 | 0.00 | 0.00 | 0.00 | 83 | 1006.1 |
| 20260506072007 | 75 | 184 | 9.0 | 20.0 | 0.00 | 0.00 | 0.00 | 83 | 1006.1 |
| 20260506071507 | 75 | 154 | 7.0 | 18.0 | 0.00 | 0.00 | 0.00 | 83 | 1006.2 |
| 20260506071006 | 75 | 260 | 9.0 | 18.0 | 0.00 | 0.00 | 0.00 | 83 | 1006.3 |
| 20260506070507 | 75 | 171 | 6.0 | 17.0 | 0.00 | 0.00 | 0.00 | 83 | 1006.3 |
| 20260506062503 | 75 | 153 | 6.0 | 22.0 | 0.00 | 0.00 | 0.00 | 83 | 1006.4 |
| 20260506062101 | 75 | 144 | 8.0 | 19.0 | 0.00 | 0.00 | 0.00 | 83 | 1006.3 |
| 20260506061600 | 75 | 161 | 6.0 | 16.0 | 0.00 | 0.00 | 0.00 | 83 | 1006.2 |
| 20260506061501 | 75 | 140 | 5.0 | 16.0 | 0.00 | 0.00 | 0.00 | 83 | 1006.2 |
| 20260506061100 | 75 | 128 | 10.0 | 16.0 | 0.00 | 0.00 | 0.00 | 83 | 1006.2 |
| 20260506060604 | 75 | 190 | 8.0 | 17.0 | 0.00 | 0.00 | 0.00 | 83 | 1006.3 |
| 20260506051052 | 76 | 360 | 7.0 | 18.0 | 0.00 | 0.00 | 0.00 | 82 | 1006.3 |
| 20260506050551 | 76 | 360 | 3.0 | 18.0 | 0.00 | 0.00 | 0.00 | 82 | 1006.2 |
| 20260506045049 | 76 | 360 | 8.0 | 15.0 | 0.00 | 0.00 | 0.00 | 82 | 1006.2 |
| 20260506044603 | 76 | 360 | 6.0 | 17.0 | 0.00 | 0.00 | 0.00 | 81 | 1006.1 |
| 20260506044048 | 76 | 360 | 7.0 | 17.0 | 0.00 | 0.00 | 0.00 | 81 | 1006.1 |
| 20260506043547 | 76 | 360 | 8.0 | 19.0 | 0.00 | 0.00 | 0.00 | 81 | 1006.1 |
| 20260506043054 | 77 | 360 | 9.0 | 19.0 | 0.00 | 0.00 | 0.00 | 80 | 1006.2 |
| 20260506042548 | 77 | 360 | 3.0 | 13.0 | 0.00 | 0.00 | 0.00 | 80 | 1006.1 |
| 20260506042047 | 77 | 360 | 5.0 | 16.0 | 0.00 | 0.00 | 0.00 | 80 | 1006.0 |
| 20260506041550 | 77 | 360 | 5.0 | 16.0 | 0.00 | 0.00 | 0.00 | 80 | 1005.9 |
| 20260506041046 | 77 | 360 | 6.0 | 14.0 | 0.00 | 0.00 | 0.00 | 80 | 1005.9 |
| 20260506040546 | 77 | 360 | 9.0 | 14.0 | 0.00 | 0.00 | 0.00 | 80 | 1005.8 |
| 20260506040147 | 77 | 360 | 5.0 | 14.0 | 0.00 | 0.00 | 0.00 | 80 | 1005.7 |
| 20260506035546 | 77 | 360 | 4.0 | 20.0 | 0.00 | 0.00 | 0.00 | 80 | 1005.7 |
| 20260506035045 | 77 | 360 | 11.0 | 20.0 | 0.00 | 0.00 | 0.00 | 79 | 1005.8 |
| 20260506034547 | 78 | 360 | 7.0 | 15.0 | 0.00 | 0.00 | 0.00 | 79 | 1005.7 |
| 20260506034045 | 78 | 360 | 8.0 | 17.0 | 0.00 | 0.00 | 0.00 | 79 | 1005.5 |
| 20260506033545 | 78 | 360 | 7.0 | 17.0 | 0.00 | 0.00 | 0.00 | 79 | 1005.4 |
| 20260506033045 | 78 | 360 | 10.0 | 16.0 | 0.00 | 0.00 | 0.00 | 79 | 1005.4 |
| 20260506032546 | 78 | 360 | 6.0 | 18.0 | 0.00 | 0.00 | 0.00 | 78 | 1005.3 |
| 20260506032045 | 78 | 360 | 8.0 | 18.0 | 0.00 | 0.00 | 0.00 | 78 | 1005.3 |
| 20260506031549 | 79 | 360 | 10.0 | 18.0 | 0.00 | 0.00 | 0.00 | 78 | 1005.4 |
| 20260506031048 | 79 | 360 | 7.0 | 18.0 | 0.00 | 0.00 | 0.00 | 78 | 1005.3 |
| 20260506030544 | 79 | 136 | 9.0 | 18.0 | 0.00 | 0.00 | 0.00 | 78 | 1005.2 |
| 20260506030044 | 79 | 130 | 9.0 | 18.0 | 0.00 | 0.00 | 0.00 | 77 | 1005.2 |
| 20260506025545 | 79 | 140 | 9.0 | 17.0 | 0.00 | 0.00 | 0.00 | 77 | 1005.1 |
| 20260506025043 | 80 | 159 | 7.0 | 15.0 | 0.00 | 0.00 | 0.00 | 76 | 1005.0 |
| 20260506024546 | 80 | 146 | 5.0 | 16.0 | 0.00 | 0.00 | 0.00 | 76 | 1004.8 |
| 20260506024045 | 80 | 163 | 7.0 | 17.0 | 0.00 | 0.00 | 0.00 | 76 | 1004.8 |
| 20260506023544 | 80 | 124 | 5.0 | 17.0 | 0.00 | 0.00 | 0.00 | 75 | 1004.7 |
| 20260506023046 | 81 | 140 | 10.0 | 17.0 | 0.00 | 0.00 | 0.00 | 75 | 1004.7 |
| 20260506022544 | 81 | 360 | 5.0 | 14.0 | 0.00 | 0.00 | 0.00 | 74 | 1004.6 |
| 20260506022043 | 81 | 142 | 9.0 | 16.0 | 0.00 | 0.00 | 0.00 | 74 | 1004.5 |
| 20260506021553 | 81 | 133 | 9.0 | 17.0 | 0.00 | 0.00 | 0.00 | 73 | 1004.5 |
| 20260506021043 | 81 | 159 | 9.0 | 17.0 | 0.00 | 0.00 | 0.00 | 73 | 1004.5 |
| 20260506020543 | 82 | 137 | 6.0 | 15.0 | 0.00 | 0.00 | 0.00 | 72 | 1004.4 |
| 20260506020042 | 82 | 136 | 9.0 | 15.0 | 0.00 | 0.00 | 0.00 | 72 | 1004.3 |
| 20260506015543 | 82 | 148 | 6.0 | 17.0 | 0.00 | 0.00 | 0.00 | 71 | 1004.1 |
| 20260506015043 | 82 | 133 | 9.0 | 19.0 | 0.00 | 0.00 | 0.00 | 71 | 1004.1 |
| 20260506014543 | 83 | 137 | 11.0 | 19.0 | 0.00 | 0.00 | 0.00 | 70 | 1004.0 |
| 20260506014046 | 83 | 156 | 6.0 | 16.0 | 0.00 | 0.00 | 0.00 | 69 | 1003.9 |
| 20260506013541 | 83 | 84 | 6.0 | 16.0 | 0.00 | 0.00 | 0.00 | 69 | 1003.9 |
| 20260506013045 | 83 | 136 | 9.0 | 14.0 | 0.00 | 0.00 | 0.00 | 69 | 1003.8 |
| 20260506012542 | 83 | 112 | 5.0 | 12.0 | 0.00 | 0.00 | 0.00 | 69 | 1003.7 |
| 20260506012042 | 83 | 99 | 8.0 | 12.0 | 0.00 | 0.00 | 0.00 | 68 | 1003.8 |
| 20260506011546 | 83 | 121 | 5.0 | 11.0 | 0.00 | 0.00 | 0.00 | 68 | 1003.6 |
| 20260506011045 | 84 | 74 | 6.0 | 12.0 | 0.00 | 0.00 | 0.00 | 68 | 1003.5 |
| 20260506010541 | 84 | 105 | 8.0 | 13.0 | 0.00 | 0.00 | 0.00 | 68 | 1003.4 |
| 20260506010047 | 84 | 100 | 8.0 | 13.0 | 0.00 | 0.00 | 0.00 | 67 | 1003.4 |
| 20260506005540 | 84 | 136 | 4.0 | 12.0 | 0.00 | 0.00 | 0.00 | 67 | 1003.4 |
| 20260506005040 | 84 | 115 | 5.0 | 12.0 | 0.00 | 0.00 | 0.00 | 66 | 1003.3 |
| 20260506004540 | 85 | 108 | 8.0 | 13.0 | 0.00 | 0.00 | 0.00 | 66 | 1003.2 |
| 20260506004040 | 85 | 103 | 6.0 | 13.0 | 0.00 | 0.00 | 0.00 | 65 | 1003.3 |
| 20260506003540 | 85 | 138 | 4.0 | 10.0 | 0.00 | 0.00 | 0.00 | 65 | 1003.2 |
| 20260506003040 | 85 | 135 | 6.0 | 10.0 | 0.00 | 0.00 | 0.00 | 65 | 1003.3 |
| 20260506002539 | 85 | 136 | 4.0 | 11.0 | 0.00 | 0.00 | 0.00 | 65 | 1003.3 |
| 20260506002040 | 85 | 116 | 3.0 | 11.0 | 0.00 | 0.00 | 0.00 | 64 | 1003.2 |
| 20260506001539 | 86 | 92 | 5.0 | 9.0 | 0.00 | 0.00 | 0.00 | 64 | 1003.2 |
| 20260506001040 | 86 | 96 | 3.0 | 9.0 | 0.00 | 0.00 | 0.00 | 64 | 1003.2 |
| 20260506000540 | 85 | 96 | 4.0 | 9.0 | 0.00 | 0.00 | 0.00 | 64 | 1003.1 |
| 20260506000039 | 85 | 113 | 4.0 | 9.0 | 0.00 | 0.00 | 0.00 | 64 | 1003.1 |
| 20260505235538 | 85 | 132 | 3.0 | 9.0 | 0.00 | 0.00 | 0.00 | 64 | 1003.1 |
| 20260505235039 | 86 | 134 | 3.0 | 11.0 | 0.00 | 0.00 | 0.00 | 64 | 1003.1 |
| 20260505234602 | 86 | 135 | 5.0 | 11.0 | 0.00 | 0.00 | 0.00 | 63 | 1003.1 |
| 20260505234038 | 86 | 192 | 4.0 | 10.0 | 0.00 | 0.00 | 0.00 | 62 | 1003.0 |
| 20260505233538 | 86 | 161 | 5.0 | 10.0 | 0.00 | 0.00 | 0.00 | 63 | 1003.0 |
| 20260505233039 | 86 | 132 | 6.0 | 13.0 | 0.00 | 0.00 | 0.00 | 63 | 1002.9 |
| 20260505232540 | 86 | 143 | 9.0 | 13.0 | 0.00 | 0.00 | 0.00 | 62 | 1003.1 |
| 20260505232037 | 87 | 150 | 5.0 | 14.0 | 0.00 | 0.00 | 0.00 | 62 | 1003.0 |
| 20260505231538 | 87 | 182 | 2.0 | 9.0 | 0.00 | 0.00 | 0.00 | 62 | 1002.9 |
| 20260505231040 | 87 | 196 | 3.0 | 10.0 | 0.00 | 0.00 | 0.00 | 60 | 1002.9 |
| 20260505230536 | 88 | 165 | 3.0 | 10.0 | 0.00 | 0.00 | 0.00 | 60 | 1003.0 |
| 20260505230041 | 88 | 163 | 2.0 | 7.0 | 0.00 | 0.00 | 0.00 | 60 | 1003.0 |
| 20260505225539 | 88 | 170 | 3.0 | 8.0 | 0.00 | 0.00 | 0.00 | 60 | 1003.1 |
| 20260505225036 | 88 | 194 | 5.0 | 13.0 | 0.00 | 0.00 | 0.00 | 60 | 1002.9 |
| 20260505224536 | 88 | 186 | 6.0 | 12.0 | 0.00 | 0.00 | 0.00 | 59 | 1002.9 |
| 20260505224035 | 88 | 217 | 4.0 | 9.0 | 0.00 | 0.00 | 0.00 | 59 | 1002.9 |
| 20260505223534 | 88 | 255 | 4.0 | 10.0 | 0.00 | 0.00 | 0.00 | 60 | 1003.0 |
| 20260505223034 | 87 | 163 | 3.0 | 11.0 | 0.00 | 0.00 | 0.00 | 60 | 1003.1 |